Home > Time Zones > World Clock > Weather > Spain > Jaén > Past weeks

Flag for Spain Weather past 2 weeks in Jaén, Spain

Now
64 °F

Clear.


Feels Like: 64 °F
Forecast: 47 / 79 °F
Wind: 2 mph from North

Location: Granada / Aeropuerto

Current Time: Apr 1, 2015 at 11:39:12 PM

Latest Report: Apr 1, 2015 at 11:00 PM


Visibility: 10 mi

Pressure: 30.24 "Hg

Humidity: 49%

Dew point: 45 °F

Location of JaénLocation

Historic Weather in Jaén — Graph

°F

Jaén temperature yesterday

Maximum temperature yesterday: 88 °F (at 4:00 PM)
Minimum temperature yesterday: 46 °F (at 7:30 AM)
Average temperature yesterday: 71 °F

Past Weeks' High & Low Weather Summary

 TemperatureHumidityPressure
High88 °F (Mar 31, 4:00 PM)100% (Mar 18, 6:00 AM)30.39 "Hg (Mar 18, 6:00 AM)
Low30 °F (Mar 26, 6:00 AM)16% (Mar 29, 5:30 PM)29.53 "Hg (Mar 24, 6:00 AM)
Average57 °F65%29.99 "Hg
* Reported Mar 17 9:00 PM — Apr 1 10:30 PM, Jaén, Weather by CustomWeather, © 2015

Note: Actual official high and low records may vary slightly from our data, if they occured in-between our weather recording intervals... More about our weather records

Advertising

Jaén weather history for previous 24 hours

 ConditionsComfort  
Time TempWeatherWind HumidityBarometerVisibility
10:30 PM
Wed, Apr 1
66 °FClear.No wind49%30.24 "Hg10 mi
10:00 PM68 °FClear.2 mph46%30.21 "Hg10 mi
9:00 PM73 °FPassing clouds.5 mph38%30.21 "HgN/A
8:30 PM77 °FPassing clouds.5 mph34%30.18 "HgN/A
8:00 PM79 °FPassing clouds.8 mph32%30.18 "HgN/A
7:30 PM82 °FPassing clouds.10 mph30%30.18 "HgN/A
7:00 PM84 °FPassing clouds.9 mph27%30.18 "HgN/A
6:30 PM84 °FPassing clouds.8 mph25%30.18 "HgN/A
6:00 PM84 °FPassing clouds.8 mph27%30.18 "HgN/A
5:30 PM86 °FPassing clouds.6 mph20%30.18 "HgN/A
5:00 PM86 °FPassing clouds.2 mph20%30.18 "HgN/A
4:30 PM86 °FPassing clouds.6 mph22%30.18 "HgN/A
4:00 PM86 °FPassing clouds.7 mph24%30.21 "HgN/A
3:30 PM86 °FPassing clouds.3 mph24%30.21 "HgN/A
3:00 PM84 °FPassing clouds.3 mph25%30.21 "HgN/A
2:30 PM84 °FPassing clouds.2 mph25%30.24 "HgN/A
2:00 PM82 °FSunny.1 mph25%30.24 "Hg10 mi
1:30 PM81 °FSunny.1 mph32%30.24 "Hg10 mi
1:00 PM77 °FSunny.1 mph32%30.27 "Hg10 mi
12:30 PM75 °FSunny.1 mph36%30.27 "Hg10 mi
12:00 PM70 °FSunny.2 mph46%30.30 "Hg10 mi
11:30 AM68 °FSunny.No wind49%30.30 "Hg10 mi
11:00 AM64 °FSunny.No wind56%30.30 "Hg10 mi
10:30 AM61 °FSunny.No wind63%30.30 "Hg10 mi
10:00 AM59 °FSunny.No wind63%30.30 "Hg10 mi
9:30 AM55 °FPassing clouds.No wind72%30.30 "HgN/A
9:00 AM52 °FPassing clouds.No wind77%30.30 "HgN/A
8:30 AM48 °FClear.No wind87%30.30 "Hg10 mi
8:00 AM46 °FClear.No wind87%30.27 "Hg10 mi
7:30 AM48 °FClear.No wind82%30.27 "Hg10 mi
7:00 AM48 °FClear.No wind82%30.27 "Hg10 mi
6:30 AM50 °FClear.No wind82%30.27 "Hg10 mi
6:00 AM50 °FClear.2 mph82%30.27 "Hg10 mi
11:00 PM
Tue, Mar 31
66 °FClear.5 mph43%30.30 "Hg10 mi
Weather by CustomWeather, © 2015

See weather overviewHow to use our weather pages